星链-6118 (STARLINK-6118 )

导读

STARLINK-6118是美国太空探索技术公司(SpaceX)星链(Starlink)计划中的卫星,于2023年6月23日发射入轨,属于星链卫星互联网星座的组成部分。星链项目旨在通过近地轨道卫星群,为全球提供高速互联网接入服务,该卫星的成功发射进一步扩充了星链星座的组网规模。

基本信息
目录编号:
57106
目录名称:
STARLINK-6118
国际标识:
2023-090F
轨道中心:
EARTH
卫星名称:
星链-6118
卫星全名:
星链-6118 (STARLINK-6118 )
卫星状态:
在轨 (已飞行1170 天)
发射日期:
2023-06-23 UTC
国别 :
美国 (US)
星等 :
--
轨道信息
数据来源 国际轨道数据 AOE轨道数据
星历时间 2026-09-05T15:37:55+0800
8小时前
查看轨道信息
2026-09-02T17:00:00+0800
3天前
查看轨道信息
半长轴 6861.27km 6861.205km
偏心率 0.0001143 0.0000053
轨道倾角 43.004° 43.004°
近地点辐角 275.822° 250.437°
升交点赤经 347.163° 3.786°
平近点角 84.250° 106.462°
近地点 482.348km 483.031km
远地点 483.918km 483.105km
周期 94.268分钟 94.267分钟
每日圈数 15.27552 15.27574
详细信息
固有亮度:
5
最大亮度:
2.4
卫星平台:
Starlink v1.5
覆盖范围:
全球
运营商:
太空探索技术公司
运营商所在国:
美国
制造商(研发单位):
太空探索技术公司
制造商所在国:
美国
使用方式:
暂无
卫星简介
星链(Starlink)计划是由太空探索技术公司(SpaceX)提出的一个巨型低轨卫星互联网星座项目,计划在2019年至2024年间在太空搭建由约1.2万颗卫星组成的“星链”网络,其中1584颗将部署在地球上空550千米处的近地轨道,并从2020年开始工作。该卫星仍在工作。
2D轨道图
3D轨道图
轨道高度分析图
轨道倾角分析图
轨道综合分析图
查看轨道综合分析图